#timestamp,LO_Frequency,Hit,StdDev 
1599969615.4,286047004.8,Y
1599969635.2,286047002.8,P
1599969655.0,286047000.9,P
1599969655.9,286047000.9,N
1599969675.8,286047000.0,N
1599969695.6,286047002.4,N
1599969715.5,286047002.7,N
1599969735.3,286047001.6,N
1599969755.1,286047000.5,N
1599969775.9,286046999.5,N
1599969795.7,286046999.2,N
1599969815.5,286046997.9,N
1599969835.4,286046996.5,N
1599969855.2,286046998.8,N
1599969875.1,286046999.2,N
1599969876.0,286046999.2,N
1599969895.8,286046993.6,Y
1599969915.6,286046993.2,P
1599969935.5,286046992.3,N
1599969955.3,286046992.4,N
1599969975.1,286046992.6,N
1599969995.9,286046996.3,N
1599970015.7,286046998.9,N
1599970035.6,286046995.3,N
1599970055.4,286046996.8,N
1599970075.2,286046999.0,N
1599970095.1,286046995.8,N
1599970096.0,286046995.8,N
1599970115.8,286046996.5,N
1599970135.7,286046996.3,N
1599970155.5,286046995.0,N
1599970175.3,286046995.1,N
1599970195.2,286046998.0,N
1599970215.0,286046993.3,N
1599970215.9,286046993.3,N
1599970235.7,286046996.8,N
1599970255.6,286046995.3,N
1599970275.4,286046997.9,N
1599970295.3,286046998.7,N
1599970315.1,286046998.5,N
1599970316.0,286046998.5,N
1599970335.8,286046999.5,N
1599970355.7,286046999.5,N
1599970375.5,286046999.3,N
1599970395.3,286046998.3,N
1599970415.2,286046998.6,N
1599970435.0,286047000.4,N
1599970435.9,286047000.4,N
1599970455.8,286047002.4,N
1599970475.6,286047000.6,N
1599970495.4,286046998.3,N
1599970515.3,286046996.8,N
1599970535.1,286046996.7,N
1599970555.9,286046998.9,N
1599970575.7,286046996.9,N
1599970595.5,286046997.4,N
1599970615.4,286046996.8,N
1599970635.2,286046996.7,N
1599970655.0,286046996.5,N
1599970655.9,286046996.5,N
1599970675.8,286046996.5,N
1599970695.6,286046999.3,N
1599970715.5,286046998.2,N
1599970735.3,286046998.0,N
1599970755.1,286046999.0,N
1599970775.9,286047000.6,N
1599970795.7,286046999.9,N
1599970815.6,286046999.8,N
1599970835.4,286047000.4,N
1599970855.2,286047000.9,N
1599970875.1,286047001.0,N
1599970876.0,286047001.0,N
1599970895.8,286046998.9,N
1599970915.6,286046999.5,N
1599970935.5,286046998.9,N
1599970955.3,286047001.2,N
1599970975.2,286047000.5,N
1599970995.9,286047000.4,N
1599971015.7,286047000.4,N
1599971035.6,286047001.1,N
1599971055.4,286047000.6,N
1599971075.2,286047001.0,N
1599971095.1,286047000.7,N
1599971096.0,286047000.7,N
1599971115.8,286046998.4,N
1599971135.7,286046998.6,N
1599971155.5,286046998.1,N
1599971175.3,286046998.2,N
1599971195.2,286046998.5,N
1599971215.0,286047000.7,N
1599971215.9,286047000.7,N
1599971235.8,286047001.0,N
1599971255.6,286047001.0,N
1599971275.4,286046998.1,N
1599971295.3,286046998.8,N
1599971315.1,286046998.6,N
1599971335.8,286046997.5,N
1599971355.7,286046998.6,N
1599971375.5,286046998.5,N
1599971395.4,286046998.8,N
1599971415.2,286046994.9,Y
1599971435.0,286046998.1,P
1599971435.9,286046998.1,N
1599971455.8,286047002.1,N
1599971475.6,286047000.8,N
1599971495.5,286046998.2,N
1599971515.3,286046997.0,N
1599971535.1,286046996.5,N
1599971555.9,286047002.4,N
1599971575.7,286046998.6,N
1599971595.5,286047000.4,N
1599971615.4,286047000.8,N
1599971635.2,286047000.0,N
1599971655.1,286047000.0,N
1599971656.0,286047000.0,N
1599971675.8,286047000.1,N
1599971695.6,286047000.5,N
1599971715.5,286046999.7,N
1599971735.3,286047001.4,N
1599971755.2,286047002.4,N
1599971775.9,286046999.7,N
1599971795.7,286047000.9,N
1599971815.6,286047000.0,N
1599971835.4,286046999.9,N
1599971855.2,286046999.9,N
1599971875.1,286047002.4,N
1599971876.0,286047002.4,N
1599971895.8,286047002.7,N
1599971915.7,286047002.6,N
1599971935.5,286047002.8,N
1599971955.3,286047002.0,N
1599971975.2,286047002.6,N
1599971995.9,286047002.8,N
1599972015.7,286047001.6,N
1599972035.6,286047001.3,N
1599972055.4,286047002.5,N
1599972075.3,286047002.5,N
1599972095.1,286047002.4,N
1599972096.0,286047002.4,N
1599972115.8,286046999.7,N
1599972135.7,286047002.3,N
1599972155.5,286047003.6,Y
1599972175.3,286046998.2,P
1599972195.2,286046995.7,N
1599972215.0,286046998.9,N
1599972215.9,286046998.9,N
1599972235.8,286046996.6,N
1599972255.6,286046997.6,N
1599972275.4,286046998.8,N
1599972295.3,286046999.5,N
1599972315.1,286046998.8,N
1599972335.8,286046997.4,N
1599972355.7,286046998.7,N
1599972375.5,286047001.1,N
1599972395.4,286047001.2,N
1599972415.2,286047000.3,N
1599972435.0,286047000.0,N
1599972435.9,286047000.0,N
1599972455.8,286046997.8,N
1599972475.6,286046999.2,N
1599972495.5,286046998.7,N
1599972515.3,286047000.8,N
1599972535.1,286047001.0,N
1599972555.9,286046996.7,N
1599972575.7,286046998.0,N
1599972595.5,286046999.2,N
1599972615.4,286046999.1,N
1599972635.2,286046997.8,N
1599972655.1,286046995.2,Y
1599972656.0,286046995.2,P
1599972675.8,286046995.8,N
1599972695.6,286047000.8,N
1599972715.5,286047000.2,N
1599972735.3,286046997.7,N
1599972755.1,286046998.9,N
1599972775.9,286046996.5,N
1599972795.7,286047000.7,N
1599972815.6,286047000.6,N
1599972835.4,286047002.4,N
1599972855.2,286046999.9,N
1599972875.1,286047002.6,N
1599972876.0,286047002.6,N
1599972895.8,286047000.2,N
1599972915.6,286047003.6,N
1599972935.5,286047003.7,N
1599972955.3,286047000.5,N
1599972975.2,286047002.0,N
1599972995.9,286047002.9,N
1599973015.7,286047002.7,N
1599973035.6,286047000.5,N
1599973055.4,286047000.7,N
1599973075.2,286046995.3,N
1599973095.1,286046996.1,N
1599973096.0,286046996.1,N
1599973115.8,286046999.5,N
1599973135.7,286046999.0,N
1599973155.5,286047000.7,N
1599973175.3,286046999.9,N
1599973195.2,286046999.1,N
